Location: Bretagne
(43.8474°N, 0.4650°W)
Time: 11:24:27
(UTC+00:00)

Radarsat Rocket - Pass Details

Date: 15 January 2026
Orbit: 933 x 1491 km, 100.5° (Epoch: 11 February)

Event Time Altitude Azimuth Distance (km) Brightness Sun altitude
Rises 18:44:57 0° 165° (SSE) 3,899 7.1 -20.3°
Reaches altitude 10° 18:47:36 10° 167° (SSE) 2,876 6.4 -20.8°
Maximum altitude 18:53:58 79° 254° (WSW) 1,008 4.1 -21.9°
Drops below altitude 10° 18:59:53 10° 341° (NNW) 2,671 6.4 -22.9°
Sets 19:02:15 0° 343° (NNW) 3,603 7.1 -23.4°
